Location: Brunsen
(51.8651°N, 9.8610°E)
Time: 13:35:06
(UTC+00:00)

Cosmos 2333 Rocket - Pass Details

Date: 23 May 2024
Orbit: 839 x 863 km, 70.8° (Epoch: 12 June)

Event Time Altitude Azimuth Distance (km) Brightness Sun altitude
Rises 00:45:21 0° 330° (NNW) 3,423 5.9 -15.0°
Reaches altitude 10° 00:47:54 10° 335° (NNW) 2,488 5.3 -14.8°
Maximum altitude 00:53:26 49° 51° (NE) 1,090 3.2 -14.5°
Drops below altitude 10° 00:58:59 10° 126° (SE) 2,490 4.5 -14.2°
Sets 01:01:32 0° 132° (SE) 3,426 5.2 -14.0°
